Regional Weather Roundup
Issued by NWS Jackson, KY

Home | Current Version | Previous Version | Text Only | Print | Product List | Glossary On
Versions: 1 2 3 4 5 6 7 8 9 10 11 12 13 14 15 16 17 18 19 20 21 22 23 24 25 26 27 28 29 30 31 32 33 34 35 36 37 38 39 40 41 42 43 44 45 46 47 48 49 50
000
ASUS43 KJKL 260619
RWRJKL

EAST KENTUCKY HOURLY WEATHER ROUNDUP
NATIONAL WEATHER SERVICE JACKSON KY
100 AM EST FRI DEC 26 2014

NOTE: "FAIR" INDICATES FEW OR NO CLOUDS BELOW 12,000 FEET WITH
NO SIGNIFICANT WEATHER AND/OR OBSTRUCTIONS TO VISIBILITY.

* THESE REPORTS ARE NOT UNDER NWS QUALITY CONTROL AND MAY NOT
  REPORT WEATHER SUCH AS PRECIPITATION AND FOG.

KYZ079-080-083-085-087-088-110-112-115-119-120-260700
...EASTERN KENTUCKY...

CITY           SKY/WX    TMP DP  RH WIND       PRES   REMARKS
JACKSON        CLEAR     35  29  78 S5        30.21R WCI  31
6HR MIN TEMP:  35; 6HR MAX TEMP:  39;

LONDON         CLEAR     31  25  78 CALM      30.22R
6HR MIN TEMP:  30; 6HR MAX TEMP:  39;

SOMERSET*      CLEAR     28  28 100 CALM      30.23S
MONTICELLO*    CLEAR     27  26  96 CALM      30.24S
6HR MIN TEMP:  26; 6HR MAX TEMP:  33;

MIDDLESBORO*   CLEAR     29  29  99 CALM      30.26S
HARLAN APT*    CLEAR     32  32 100 NE5       30.24R WCI  27
HAZARD APT*    CLEAR     32  32 100 CALM      30.22
PIKEVILLE APT* CLEAR     34  32  93 SE5       30.20  WCI  30
BIG SANDY*     CLEAR     33  32  94 CALM      30.21S
6HR MIN TEMP:  31; 6HR MAX TEMP:  40;

MOREHEAD APT*  CLEAR     32  30  93 SE6       30.24S WCI  26
ASHLAND*       CLEAR    N/A N/A N/A CALM      30.21
$$

KYZ035-036-041-042-044-050-067-078-099-260700
...CENTRAL KENTUCKY...

CITY           SKY/WX    TMP DP  RH WIND       PRES   REMARKS
MT STERLING*   CLEAR     30  30 100 S3        30.23R
FLEMING/MASON* CLEAR     34  30  86 S6        30.21F WCI  29
DANVILLE*      CLEAR     30  28  93 S3        30.20F
RICHMOND*      CLEAR     34  30  86 CALM      30.20S
LEXINGTON      CLEAR     31  29  92 SE8       30.20R WCI  23
6HR MIN TEMP:  31; 6HR MAX TEMP:  37;

FRANKFORT      CLEAR     32  29  88 SE6       30.18F WCI  26
6HR MIN TEMP:  29; 6HR MAX TEMP:  37;

$$

KYZ091>093-OHZ055-061-077-WVZ005-015-034-035-042-260700
...SOUTHERN OHIO/WEST VIRGINIA...

CITY           SKY/WX    TMP DP  RH WIND       PRES   REMARKS
COVINGTON      CLEAR     29  24  82 SE6       30.17S WCI  23
COLUMBUS       CLEAR     33  28  81 S5        30.19R WCI  29
DAYTON         CLEAR     34  30  85 S8        30.16F WCI  27
WILMINGTON     CLEAR     32  28  85 S5        30.17S WCI  27
HUNTINGTON     CLEAR     29  27  92 E3        30.22S
CHARLESTON     CLEAR     29  27  92 CALM      30.22S
PINEVILLE*     CLEAR     30  30 100 MISG      30.26F
BECKLEY        CLEAR     29  26  89 SE3       30.18F
BLUEFIELD      PTCLDY    35  27  72 W5        30.18F WCI  31
$$

VAZ002-007-008-TNZ017-027-036-066-071-260700
...SOUTHWEST VIRGINIA/EAST TENNESSEE...

CITY           SKY/WX    TMP DP  RH WIND       PRES   REMARKS
WISE*          CLEAR     30  30 100 SW6       30.21R WCI  24
JONESVILLE*    CLEAR     27  27 100 CALM      30.28R
ABINGDON*      CLEAR     30  28  93 CALM      30.24R
BRISTOL        PTCLDY    27  26  96 CALM      30.25R
KNOXVILLE      CLEAR     31  29  92 W3        30.25R
OAK RIDGE      CLEAR     31  29  92 CALM      30.27S
CROSSVILLE     CLEAR     36  31  82 CALM      30.22R
NASHVILLE      CLEAR     36  32  85 CALM      30.22R
$$

...KEY TO REMARKS...
VSB - VISIBILITY IN MILES
WCI - WIND CHILL INDEX
HX  - HEAT INDEX

$$


USA.gov is the U.S. government's official web portal to all federal, state and local government web resources and services.